Tracking 23731 objects as of 26-Sep-2021
HD Live streaming from Space Station
objects crossing your sky now

STARLINK-1379

Track STARLINK-1379 now!
10-day predictions
STARLINK-1379 is classified as:


NORAD ID: 45549
Int'l Code: 2020-025U
Perigee: 553.2 km
Apogee: 555.5 km
Inclination: 53.1 °
Period: 95.6 minutes
Semi major axis: 6925 km
RCS: Unknown
Launch date: April 22, 2020
Source: United States (US)
Launch site: AIR FORCE EASTERN TEST RANGE (AFETR)
aabbcc
Your satellite tracking list
Your tracking list is empty




NASA's NSSDC Master Catalog

Two Line Element Set (TLE):
1 45549U 20025U   21269.12093950  .00000221  00000-0  33747-4 0  9998
2 45549  53.0534 204.0870 0001710  75.1587 284.9591 15.06404389 79499
Source of the keplerian elements: AFSPC